User: anonymous   Login
Location: Newark
(40.3500°N, 15.2333°E)
Time: 04:04:32
(UTC+00:00)
Language:

SR - Orbit

View from above orbital plane
View from above orbital plane
View from above satellite
View from above satellite

Ground track
Ground track

The orbit data is extracted from the following two-line orbital elements,

1    46U 60007B   20017.71197100 -.00000023  00000-0  18733-4 0  9991
2    46  66.6909  96.5207 0216891 245.1618 112.6798 14.49269394117117
Epoch (UTC): 17 January 2020 17:05:14
Eccentricity: 0.0216891
inclination: 66.6909°
perigee height: 574 km
apogee height: 882 km
right ascension of ascending node: 96.5207°
argument of perigee: 245.1618°
revolutions per day: 14.49269394
mean anomaly at epoch: 112.6798°
orbit number at epoch: 11711

The dashed part of the orbit path shows where the satellite is in the earth's shadow,  

DLR